Regional Weather Roundup
Issued by NWS Northern Indiana

Home | Current Version | Previous Version | Graphics & Text | Print | Product List | Glossary On
Versions: 1 2 3 4 5 6 7 8 9 10 11 12 13 14 15 16 17 18 19 20 21 22 23 24 25 26 27 28 29 30 31 32 33 34 35 36 37 38 39 40 41 42 43 44 45 46 47 48 49 50
000
ASUS43 KIWX 250600
RWRIWX

KIWX WEATHER ROUNDUP
NATIONAL WEATHER SERVICE NORTHERN INDIANA
200 AM EDT MON JUL 25 2016

NOTE: "FAIR" INDICATES FEW OR NO CLOUDS BELOW 12,000 FEET WITH NO
SIGNIFICANT WEATHER AND/OR OBSTRUCTIONS TO VISIBILITY.

* THESE STATIONS ARE NOT UNDER NWS QUALITY CONTROL. THEY ALSO MAY NOT
  REPORT WEATHER SUCH AS PRECIPITATION OR FOG.

INZ001>027-250700-
NORTHERN INDIANA

CITY           SKY/WX    TMP DP  RH WIND       PRES   REMARKS
KNOX*          CLOUDY    68  64  88 SE3       29.96F
SOUTH BEND     RAIN      70  68  93 SW16      29.96F
6HR MIN TEMP:  70; 6HR MAX TEMP:  86; 6HR PCP:  0.14;

GOSHEN         LGT RAIN  71  65  81 SW8       29.97R
6HR MIN TEMP:  71; 6HR MAX TEMP:  88; 6HR PCP: TRACE;

MONTICELLO*    LGT RAIN  70  65  84 W3        30.00S
6HR MIN TEMP:  69; 6HR MAX TEMP:  88; 6HR PCP:  0.09;

ANGOLA*        MOCLDY    79  73  83 W12       29.95R
FORT WAYNE     CLOUDY    76  66  71 W8        29.96S
6HR MIN TEMP:  76; 6HR MAX TEMP:  89;

PERU/GRISSOM   CLOUDY    71  69  94 W10       29.96F
6HR MIN TEMP:  70; 6HR MAX TEMP:  87; 6HR PCP:  0.02;


$$
INZ028>050-250700-
CENTRAL INDIANA

CITY           SKY/WX    TMP DP  RH WIND       PRES   REMARKS
LAFAYETTE      LGT RAIN  71  70  96 W6        30.01S
6HR MIN TEMP:  71; 6HR MAX TEMP:  87; 6HR PCP:  0.11;

KOKOMO*        CLOUDY    72  64  78 W9        29.98F
6HR MIN TEMP:  72; 6HR MAX TEMP:  90;

MUNCIE*        CLOUDY    80  74  81 W7        29.99S
6HR MIN TEMP:  80; 6HR MAX TEMP:  90;

INDIANAPOLIS   NOT AVBL

$$
MIZ043>046-050>051-056>058-064>065-071>073-077>080-250700-
SOUTHWEST LOWER MICHIGAN

CITY           SKY/WX    TMP DP  RH WIND       PRES   REMARKS
BATTLE CREEK   LGT RAIN  76  71  85 W14       29.92R
6HR MIN TEMP:  76; 6HR MAX TEMP:  83; 6HR PCP:  0.01;

BENTON HARBOR  CLOUDY    75  66  73 SW9       29.94R
6HR MIN TEMP:  75; 6HR MAX TEMP:  87;

COLDWATER*     LGT RAIN  78  72  81 SW14      29.93R
6HR MIN TEMP:  78; 6HR MAX TEMP:  85;

HOLLAND        CLOUDY    76  69  79 SW13      29.92R
6HR MIN TEMP:  76; 6HR MAX TEMP:  86;

GRAND RAPIDS   CLOUDY    77  67  71 W13       29.88S
6HR MIN TEMP:  77; 6HR MAX TEMP:  85;

KALAMAZOO      LGT RAIN  76  68  76 SW13      29.93R
6HR MIN TEMP:  76; 6HR MAX TEMP:  87; 6HR PCP:  0.02;

STURGIS*       LGT RAIN  71  67  88 SW6       29.96R
6HR MIN TEMP:  71; 6HR MAX TEMP:  84; 6HR PCP:  0.01;

THREE RIVERS*  LGT RAIN  74  67  78 SW9       29.95R
6HR MIN TEMP:  74; 6HR MAX TEMP:  86;


$$
OHZ001>008-015>018-024>025-250700-
NORTHWEST OHIO

CITY           SKY/WX    TMP DP  RH WIND       PRES   REMARKS
DEFIANCE       CLOUDY    83  74  74 SW10      29.93R
6HR MIN TEMP:  79; 6HR MAX TEMP:  87;

FINDLAY        PTCLDY    79  73  82 SW10      29.95R
6HR MIN TEMP:  77; 6HR MAX TEMP:  86;

TOLEDO EXPRESS CLOUDY    78  76  93 SW8       29.91S
6HR MIN TEMP:  76; 6HR MAX TEMP:  82;

TOLEDO METCALF CLOUDY    80  76  87 SW9       29.92S
6HR MIN TEMP:  77; 6HR MAX TEMP:  83;

LIMA           PTCLDY    79  76  90 SW8       29.98R
6HR MIN TEMP:  78; 6HR MAX TEMP:  84;


$$
AND FOR LAKE MICHIGAN COASTAL AND OPEN LAKE BUOY OBSERVATIONS

STATION/POSITION TEMP    WIND        PRES    VSBY  WAVE
                 AIR SEA DIR/SP/G                  HT/PER
                 (F)     (DEG/KT/KT) (MB)    (MI)  (FT/S)
CALUMET HARBOR    75     180/ 10/ 16 1013.2R
MICHIGAN CITY     75     160/ 13/ 19   N/A
BURNS HARBOR      74     190/ 18/ 22 1014.2R
SAINT JOSEPH      79     200/ 11/ 17 1013.9R
SOUTH LAKE BUOY   75 73  210/ 10/ 10 1010.9          2/ 4
4 MI NW BRIDGMAN  75 74  180/ 12/ 14 1012.9R         3/ 5
MICHIGAN CITY     75 74  220/ 14/ 17   N/A           2/ 4

$$
&&




USA.gov is the U.S. government's official web portal to all federal, state and local government web resources and services.